Starlink 35712

operational
NORAD ID: 66215 Int'l Des: 2025-244 Owner: SPXS Country: US Constellation: starlink
NOTLE

关于 Starlink 35712

正在加载描述...

实时位置

正在加载3D地球...

即将过境

高度历史

Altitude vs Time

uPlot chart will show altitude changes over time

两行轨道根数

1 66215U 25244K 25350.99780898 -.00499960 00000-0 -16487-1 0 9996
2 66215 53.1609 255.8049 0036229 78.7338 281.7732 15.32240050 8973
Epoch: Dec 16, 2025 • Age: 17 hours

当前状态

高度 479.6 km
速度 7.62 km/s
星下点 -15.10°S, 102.04°W
发射日期 Oct 28, 2025
运行时间 0.1 years
类型 internet

技术详情

分类 Payload
质量 575.00 kg
干质量 530.00 kg
总质量 575.00 kg
长度 0.30 m
直径 4.10 m
跨度 29.00 m
形状 Box + pan
制造商 SPXS
平台类型 Starlink V2MO
阶段状态 In Orbit
所有者/国家 SPXS/US

大型星座

Loading constellations...